Home   Weather   Duluth   Past weeks

Flag for USA Past Weather in Duluth, Minnesota, USA — Yesterday and Last 2 Weeks

Now
37 °F

Scattered clouds.


Feels Like: 34 °F
Forecast: 28 / 35 °F
Wind: 5 mph from East

Location: Sky Harbor Airport

Current Time: Dec 5, 2016 at 12:51:16 pm

Latest Report: Dec 5, 2016 at 12:14 pm


Visibility: 10 mi

Pressure: 29.81 "Hg

Humidity: 75%

Dew Point: 30 °F

Location of DuluthLocation

Past Weather in Duluth — Graph

°F

Duluth Temperature Yesterday

Maximum temperature yesterday: 36 °F (at 9:34 pm)
Minimum temperature yesterday: 28 °F (at 3:14 am)
Average temperature yesterday: 32 °F

High & Low Weather Summary for the Past Weeks

 TemperatureHumidityPressure
High52 °F (Nov 28, 10:54 am)100% (Nov 23, 11:14 am)30.42 "Hg (Nov 23, 11:14 am)
Low25 °F (Nov 21, 6:13 am)56% (Nov 22, 4:33 am)28.98 "Hg (Nov 29, 12:54 am)
Average35 °F84%29.94 "Hg
* Reported Nov 20 11:14 am — Dec 5 11:33 am, Duluth, Weather by CustomWeather, © 2016

Note: Actual official high and low records may vary slightly from our data, if they occured in-between our weather recording intervals... More about our weather records

Advertising

Duluth Weather History for the Previous 24 Hours

Scroll right to see more
 ConditionsComfort  
Time TempWeatherWind HumidityBarometerVisibility
11:33 am
Mon, Dec 5
37 °FScattered clouds.3 mph75%29.82 "Hg10 mi
11:14 am36 °FScattered clouds.No wind81%29.81 "Hg10 mi
10:53 am36 °FPartly sunny.No wind81%29.82 "Hg10 mi
10:34 am36 °FOvercast.No wind81%29.82 "Hg10 mi
10:13 am34 °FOvercast.No wind87%29.81 "Hg10 mi
9:53 am34 °FScattered clouds.No wind87%29.81 "Hg10 mi
9:34 am34 °FSunny.No wind81%29.82 "Hg10 mi
9:14 am34 °FSunny.No wind81%29.82 "Hg10 mi
8:53 am34 °FScattered clouds.3 mph81%29.81 "Hg10 mi
8:34 am34 °FOvercast.3 mph87%29.80 "Hg10 mi
8:13 am34 °FOvercast.5 mph81%29.80 "Hg10 mi
7:54 am36 °FOvercast.6 mph81%29.80 "Hg10 mi
7:34 am34 °FOvercast.No wind87%29.80 "Hg10 mi
7:13 am36 °FOvercast.5 mph81%29.79 "Hg10 mi
6:54 am36 °FOvercast.6 mph81%29.79 "Hg10 mi
6:33 am36 °FOvercast.6 mph81%29.79 "Hg10 mi
6:14 am36 °FOvercast.7 mph81%29.78 "Hg10 mi
5:54 am36 °FOvercast.8 mph75%29.77 "Hg10 mi
5:33 am36 °FOvercast.9 mph81%29.76 "Hg10 mi
5:14 am36 °FOvercast.13 mph75%29.76 "Hg10 mi
4:54 am36 °FOvercast.12 mph81%29.76 "Hg10 mi
4:33 am36 °FOvercast.7 mph81%29.76 "Hg10 mi
4:14 am36 °FOvercast.7 mph81%29.76 "Hg10 mi
3:54 am36 °FOvercast.7 mph81%29.76 "Hg10 mi
3:33 am36 °FOvercast.9 mph81%29.76 "Hg10 mi
3:14 am36 °FOvercast.9 mph81%29.76 "Hg10 mi
2:53 am36 °FMostly cloudy.12 mph81%29.76 "Hg10 mi
2:33 am36 °FOvercast.12 mph81%29.75 "Hg10 mi
2:14 am36 °FOvercast.10 mph81%29.74 "Hg10 mi
1:53 am36 °FOvercast.12 mph81%29.73 "Hg10 mi
1:34 am36 °FOvercast.10 mph81%29.71 "Hg10 mi
1:14 am36 °FOvercast.10 mph81%29.70 "Hg10 mi
12:53 am36 °FOvercast.10 mph81%29.70 "Hg10 mi
12:34 am36 °FMostly cloudy.9 mph81%29.70 "Hg10 mi
12:14 am36 °FOvercast.12 mph81%29.70 "Hg10 mi
11:53 pm
Sun, Dec 4
36 °FOvercast.9 mph81%29.69 "Hg10 mi
11:34 pm36 °FOvercast.8 mph81%29.69 "Hg10 mi
11:13 pm36 °FMostly cloudy.9 mph87%29.68 "Hg10 mi
10:54 pm36 °FOvercast.12 mph87%29.68 "Hg10 mi
10:34 pm36 °FOvercast.10 mph93%29.67 "Hg7 mi
10:13 pm36 °FOvercast.12 mph93%29.66 "Hg7 mi
9:54 pm36 °FMostly cloudy.9 mph93%29.66 "Hg7 mi
9:34 pm36 °FFog.8 mph93%29.66 "Hg5 mi
9:13 pm34 °FFog.7 mph100%29.66 "Hg4 mi
8:53 pm34 °FFog.7 mph100%29.66 "Hg4 mi
8:34 pm34 °FLight rain. Low clouds.6 mph93%29.67 "Hg5 mi
8:14 pm34 °FLow clouds.6 mph93%29.67 "Hg7 mi
7:53 pm34 °FOvercast.3 mph93%29.68 "Hg7 mi
7:34 pm34 °FOvercast.5 mph93%29.68 "Hg7 mi
7:14 pm34 °FLight rain. Overcast.3 mph93%29.68 "Hg5 mi
6:53 pm34 °FOvercast.No wind87%29.69 "Hg7 mi
6:34 pm34 °FMostly cloudy.No wind87%29.70 "Hg7 mi
5:53 pm34 °FLight rain. Overcast.5 mph93%29.71 "Hg2 mi
5:34 pm34 °FLight rain. Mostly cloudy.5 mph93%29.72 "Hg10 mi
5:13 pm34 °FLight rain. Mostly cloudy.6 mph93%29.73 "Hg10 mi
4:53 pm34 °FLight rain. Overcast.6 mph93%29.73 "Hg10 mi
4:34 pm34 °FOvercast.6 mph87%29.73 "Hg10 mi
4:13 pm34 °FOvercast.6 mph87%29.74 "Hg10 mi
3:54 pm34 °FLight rain. Overcast.7 mph87%29.74 "Hg5 mi
3:34 pm34 °FOvercast.8 mph87%29.74 "Hg10 mi
3:14 pm34 °FOvercast.7 mph87%29.75 "Hg10 mi
2:53 pm34 °FOvercast.8 mph87%29.76 "Hg10 mi
2:34 pm34 °FOvercast.7 mph87%29.76 "Hg10 mi
2:14 pm34 °FOvercast.8 mph87%29.77 "Hg10 mi
1:53 pm34 °FOvercast.8 mph87%29.78 "Hg10 mi
1:34 pm34 °FOvercast.7 mph87%29.79 "Hg10 mi
1:14 pm34 °FOvercast.7 mph87%29.81 "Hg10 mi
12:53 pm34 °FOvercast.8 mph87%29.82 "Hg10 mi
12:34 pm34 °FOvercast.8 mph87%29.83 "Hg10 mi
12:14 pm34 °FLight rain. Overcast.7 mph87%29.84 "Hg10 mi
Weather by CustomWeather, © 2016

See weather overviewHow to use our weather pages